Location: Lake Zurich
(42.1970°N, 88.0930°W)
Time: 18:17:06
(UTC-06:00)

Amateur Radio Satellites - All Passes

Search period start: 02 December 2016 17:47
Search period end: 03 December 2016 17:47
Location: Lake Zurich, 42.1970°N, 88.0930°W

Satellite Date Start Highest point End Downlink Frequencies (MHz)
Time Altitude Azimuth
BRITE-PL 02 Dec 17:48:07 17:49:23 11° 272° (W) 17:50:42 437.365/2234.400
AIST 2 02 Dec 17:50:07 17:54:21 74° 239° (WSW) 17:58:33 435.215
Cubesat XI-IV 02 Dec 17:56:29 18:01:39 45° 261° (W) 18:06:49 437.490
LilacSat-2 02 Dec 17:59:44 18:03:04 27° 264° (W) 18:06:24 437.200
CUTE 1.7 + AOD 2 02 Dec 18:01:37 18:05:05 25° 68° (ENE) 18:08:32 437.475
NOAA 15 02 Dec 18:08:29 18:13:04 31° 264° (W) 18:17:42 137.62
DOVE 4 02 Dec 18:11:10 18:15:33 39° 264° (W) 18:20:13 437.250
CANX-2 02 Dec 18:18:08 18:22:08 43° 72° (ENE) 18:26:09 2200.000
CINEMA 3 02 Dec 18:20:39 18:25:29 70° 75° (ENE) 18:30:30 145.822/145.860
STARS 02 Dec 18:20:46 18:22:09 11° 300° (WNW) 18:23:31 437.465
UWE-3 02 Dec 18:22:44 18:25:04 14° 62° (ENE) 18:27:23 435.000/436.395/437.385
RS-15 02 Dec 18:24:50 18:35:53 42° 253° (WSW) 18:46:38 29.354- 29.394
HO-68 02 Dec 18:32:39 18:39:46 74° 71° (ENE) 18:46:57 435.675
CUBESAT XI-V 02 Dec 18:32:48 18:34:49 13° 299° (WNW) 18:36:51 437.345
AAUSAT CUBESAT 2 02 Dec 18:44:26 18:47:51 26° 69° (ENE) 18:51:15 437.432
NOAA 18 02 Dec 18:48:30 18:52:57 25° 266° (W) 18:57:28 137.9125
SEEDS 02 Dec 18:51:46 18:55:52 61° 75° (ENE) 19:00:00 437.485
STRAND 1 02 Dec 18:54:47 18:59:42 46° 99° (E) 19:04:35 437.568
Cosmos 2491 02 Dec 19:04:38 19:13:04 56° 270° (W) 19:21:27 435.465 / 435.565
AIST 1 02 Dec 19:04:50 19:07:49 19° 87° (E) 19:10:49
CUBEBUG 2 02 Dec 19:05:28 19:10:06 54° 73° (ENE) 19:14:44 437.445
COMPASS 1 02 Dec 19:09:48 19:13:53 65° 74° (ENE) 19:17:59 437.405
ZACube-1 02 Dec 19:11:11 19:14:56 25° 68° (ENE) 19:18:39 437.345
ISS 02 Dec 19:11:16 19:14:03 24° 341° (NNW) 19:16:51 145.825
Cosmos 2504 02 Dec 19:18:06 19:25:37 41° 86° (E) 19:33:34 435.465 / 435.565
FUNcube-1 02 Dec 19:21:00 19:24:56 29° 69° (ENE) 19:28:49 145.935
YUBILEINY 02 Dec 19:33:00 19:41:43 85° 279° (W) 19:50:32 435.215
CUTE 1.7 + AOD 2 02 Dec 19:37:10 19:40:49 28° 265° (W) 19:44:28 437.475
PCSat 02 Dec 19:49:43 19:53:54 22° 44° (NE) 19:58:04 145.827
CANX-2 02 Dec 19:55:34 19:58:12 16° 268° (W) 20:00:50 2200.000
UWE-3 02 Dec 19:56:17 20:00:56 70° 258° (WSW) 20:05:36 435.000/436.395/437.385
PRISM 02 Dec 19:56:21 19:57:58 12° 91° (E) 19:59:36 437.425
Oscar 11 02 Dec 19:56:21 20:00:37 65° 75° (ENE) 20:04:55 145.826/435.025
CINEMA 3 02 Dec 20:00:45 20:03:08 13° 272° (W) 20:05:34 145.822/145.860
DELFI C3 02 Dec 20:16:50 20:20:27 36° 71° (ENE) 20:24:04 145.870
AAUSAT CUBESAT 2 02 Dec 20:19:47 20:23:14 26° 265° (W) 20:26:42 437.432
HO-68 02 Dec 20:23:02 20:28:08 21° 269° (W) 20:33:17 435.675
SEEDS 02 Dec 20:30:38 20:31:58 11° 271° (W) 20:33:17 437.485
SO-50 02 Dec 20:31:05 20:35:42 51° 118° (ESE) 20:40:17 436.795
STRAND 1 02 Dec 20:34:39 20:38:34 23° 296° (WNW) 20:42:28 437.568
AIST 1 02 Dec 20:41:09 20:45:07 36° 284° (WNW) 20:49:07
CUBEBUG 2 02 Dec 20:43:59 20:47:00 17° 269° (W) 20:50:01 437.445
ZACube-1 02 Dec 20:46:56 20:51:03 33° 263° (W) 20:55:10 437.345
COMPASS 1 02 Dec 20:49:11 20:49:51 10° 271° (W) 20:50:31 437.405
ISS 02 Dec 20:49:16 20:51:24 16° 1° (N) 20:53:33 145.825
CUSAT 1 02 Dec 20:51:42 20:54:59 59° 261° (W) 20:59:13 437.405
UNISAT 6 02 Dec 20:53:58 20:55:39 12° 89° (E) 20:57:20 437.425
FUNcube-1 02 Dec 20:57:10 21:01:05 28° 265° (W) 21:05:00 145.935
DANDE 02 Dec 21:00:32 21:02:53 26° 77° (ENE) 21:05:29 436.750
Cosmos 2504 02 Dec 21:11:02 21:18:52 45° 287° (WNW) 21:27:13 435.465 / 435.565
HUMSAT D 02 Dec 21:12:39 21:16:54 87° 77° (ENE) 21:21:07 437.325/437.525
TIGRISAT 02 Dec 21:23:39 21:27:14 24° 94° (E) 21:30:44 435.000
ANTELSAT 02 Dec 21:24:00 21:27:41 25° 94° (E) 21:31:18 437.575/2403.000
ESTCUBE 1 02 Dec 21:25:35 21:28:44 19° 65° (ENE) 21:31:52 437.505/2401.250
PRISM 02 Dec 21:29:31 21:33:36 57° 287° (WNW) 21:37:41 437.425
PCSat 02 Dec 21:32:23 21:37:47 67° 244° (WSW) 21:43:09 145.827
YUBILEINY 02 Dec 21:34:17 21:39:56 18° 300° (WNW) 21:45:39 435.215
Oscar 11 02 Dec 21:35:47 21:37:11 11° 271° (W) 21:38:34 145.826/435.025
AISAT 02 Dec 21:48:58 21:51:31 15° 62° (ENE) 21:54:04 437.250
DELFI C3 02 Dec 21:52:54 21:55:24 16° 268° (W) 21:57:55 145.870
JAS-2 02 Dec 21:55:42 21:56:27 10° 88° (E) 21:57:14 435.910
SO-50 02 Dec 22:12:34 22:16:26 24° 316° (NW) 22:20:16 436.795
NANOSAT C BR1 02 Dec 22:21:55 22:22:15 10° 89° (E) 22:22:35 145.865
QB50P2 02 Dec 22:22:35 22:24:27 13° 90° (E) 22:26:19 145.880/145.840
CUBEBUG 1 02 Dec 22:23:17 22:27:24 44° 71° (ENE) 22:31:35 437.445
POLYITAN 1 02 Dec 22:23:27 22:25:05 12° 90° (E) 22:26:42 437.675
VELOX 1 02 Dec 22:24:31 22:28:26 32° 69° (ENE) 22:32:22 145.980
ISS 02 Dec 22:25:48 22:28:43 27° 21° (NNE) 22:31:37 145.825
UNISAT 6 02 Dec 22:28:25 22:32:50 63° 287° (WNW) 22:37:08 437.425
QB50P1 02 Dec 22:36:44 22:39:33 17° 92° (E) 22:42:20 145.935-145.965
DUCHIFAT 1 02 Dec 22:43:52 22:46:43 17° 93° (E) 22:49:32 145.980
DX 1 02 Dec 22:50:25 22:54:19 33° 69° (ENE) 22:58:14 434.975-435.025
50 SAT 02 Dec 22:50:50 22:54:12 46° 74° (ENE) 22:57:35 437.505
POPSAT HIP 1 02 Dec 22:57:12 23:00:53 28° 96° (E) 23:04:31 437.405
TIGRISAT 02 Dec 23:00:00 23:03:57 32° 291° (WNW) 23:07:48 435.000
ANTELSAT 02 Dec 23:00:31 23:04:23 30° 292° (WNW) 23:08:10 437.575/2403.000
ESTCUBE 1 02 Dec 23:00:57 23:05:12 43° 261° (W) 23:09:29 437.505/2401.250
UKube-1 02 Dec 23:04:58 23:08:53 35° 70° (ENE) 23:12:50 .
AISAT 02 Dec 23:23:11 23:27:30 56° 259° (W) 23:31:53 437.250
SPROUT 02 Dec 23:25:05 23:29:23 88° 254° (WSW) 23:33:44 437.525
TISAT 1 02 Dec 23:26:27 23:29:11 17° 64° (ENE) 23:31:56 437.305
JAS-2 02 Dec 23:37:04 23:42:16 85° 286° (WNW) 23:47:36 435.910
M-CUBED/EXP-1 PRIME 02 Dec 23:46:02 23:47:29 12° 54° (NE) 23:48:58 437.505
NANOSAT C BR1 02 Dec 23:54:12 23:58:26 69° 286° (WNW) 00:02:37 145.865
BUGSAT 1 02 Dec 23:55:16 23:59:16 41° 98° (E) 00:03:12 437.445
QB50P2 02 Dec 23:56:25 00:00:37 57° 286° (WNW) 00:04:45 145.880/145.840
POLYITAN 1 02 Dec 23:57:04 00:01:16 59° 286° (WNW) 00:05:24 437.675
CUBEBUG 1 03 Dec 00:01:05 00:03:54 17° 268° (W) 00:06:46 437.445
VELOX 1 03 Dec 00:01:21 00:04:55 24° 265° (W) 00:08:30 145.980
ISS 03 Dec 00:02:08 00:05:22 52° 219° (SW) 00:08:36 145.825
GONETS M04 03 Dec 00:10:26 00:18:29 44° 87° (E) 00:26:31
QB50P1 03 Dec 00:11:30 00:15:31 41° 288° (WNW) 00:19:28 145.935-145.965
DUCHIFAT 1 03 Dec 00:18:35 00:22:34 40° 289° (WNW) 00:26:29 145.980
Cosmos 2499 03 Dec 00:20:56 00:29:04 55° 90° (E) 00:37:37 435.465 / 435.565
DX 1 03 Dec 00:27:08 00:30:33 23° 265° (W) 00:34:00 434.975-435.025
50 SAT 03 Dec 00:27:19 00:27:46 10° 269° (W) 00:28:14 437.505
Gurwin Techsat 1B 03 Dec 00:29:26 00:31:15 12° 88° (E) 00:33:04 435.225
POPSAT HIP 1 03 Dec 00:33:02 00:36:34 26° 292° (WNW) 00:40:03 437.405
UKube-1 03 Dec 00:41:45 00:45:00 21° 266° (W) 00:48:17 .
SWISSCUBE 03 Dec 00:45:02 00:49:05 28° 67° (ENE) 00:53:08 437.505
BEESAT 03 Dec 00:49:30 00:53:32 28° 67° (ENE) 00:57:34 436.000
Oscar 19 03 Dec 01:00:12 01:05:12 46° 99° (E) 01:10:11 437.125/150
TISAT 1 03 Dec 01:00:23 01:04:27 45° 261° (W) 01:08:33 437.305
AUBIESAT-1 03 Dec 01:08:08 01:12:07 66° 70° (ENE) 01:16:26 437.475
ITUPSAT 1 03 Dec 01:14:02 01:18:36 47° 71° (ENE) 01:23:11 437.325
M-CUBED/EXP-1 PRIME 03 Dec 01:17:14 01:21:12 80° 250° (WSW) 01:25:33 437.505
JAS-2 03 Dec 01:25:21 01:26:35 11° 303° (WNW) 01:27:47 435.910
BUGSAT 1 03 Dec 01:31:26 01:34:18 18° 295° (WNW) 01:37:09 437.445
O/OREOS (USA 219) 03 Dec 01:35:40 01:39:47 34° 60° (ENE) 01:43:50 437.305
KKS-1 03 Dec 01:49:46 01:51:21 12° 60° (ENE) 01:52:57 437.445
AO-7 03 Dec 02:02:08 02:07:19 17° 90° (E) 02:12:28 29.400- 29.500
Gurwin Techsat 1B 03 Dec 02:06:30 02:11:52 86° 284° (WNW) 02:17:11 435.225
GONETS M04 03 Dec 02:07:08 02:15:17 42° 287° (WNW) 02:23:27
PHONESAT 2.4 03 Dec 02:12:47 02:15:11 29° 162° (SSE) 02:17:34 2401.200-2431.200
AO-85 03 Dec 02:14:20 02:19:02 44° 117° (ESE) 02:23:26 145.980
Cosmos 2499 03 Dec 02:14:58 02:22:33 35° 291° (WNW) 02:30:30 435.465 / 435.565
SWISSCUBE 03 Dec 02:22:30 02:26:46 32° 263° (W) 02:31:03 437.505
MOZHAYETS 4 03 Dec 02:26:48 02:31:20 61° 74° (ENE) 02:35:51
BEESAT 03 Dec 02:26:55 02:31:11 32° 263° (W) 02:35:30 436.000
Oscar 19 03 Dec 02:40:10 02:44:13 24° 296° (WNW) 02:48:16 437.125/150
AUBIESAT-1 03 Dec 02:45:51 02:47:03 11° 267° (W) 02:48:17 437.475
ITUPSAT 1 03 Dec 02:53:16 02:56:40 19° 267° (W) 03:00:04 437.325
ITAMSAT 1 03 Dec 02:59:47 03:04:58 70° 103° (ESE) 03:10:07 435.822/435.867
O/OREOS (USA 219) 03 Dec 03:15:26 03:18:59 24° 258° (WSW) 03:22:31 437.305
KKS-1 03 Dec 03:22:48 03:27:16 78° 257° (WSW) 03:31:46 437.445
SO-50 03 Dec 03:24:23 03:24:55 10° 31° (NNE) 03:25:27 436.795
STARS 03 Dec 03:38:39 03:43:02 74° 76° (ENE) 03:47:29 437.465
PHONESAT 2.4 03 Dec 03:47:37 03:50:16 59° 178° (S) 03:52:53 2401.200-2431.200
Gurwin Techsat 1B 03 Dec 03:48:49 03:50:59 13° 303° (WNW) 03:53:10 435.225
AO-7 03 Dec 03:52:44 04:01:10 86° 110° (ESE) 04:09:34 29.400- 29.500
AO-85 03 Dec 03:55:33 03:59:36 26° 313° (NW) 04:03:26 145.980
CUBESAT XI-V 03 Dec 03:56:53 04:01:27 76° 75° (ENE) 04:06:04 437.345
MOZHAYETS 4 03 Dec 04:06:34 04:08:52 14° 270° (W) 04:11:11
BRITE-PL 03 Dec 04:09:43 04:14:00 24° 93° (E) 04:18:24 437.365/2234.400
HORYU 2 03 Dec 04:28:42 04:32:09 22° 94° (E) 04:35:34 437.375
ITAMSAT 1 03 Dec 04:40:42 04:43:51 16° 300° (WNW) 04:46:59 435.822/435.867
NOAA 15 03 Dec 04:45:18 04:46:59 11° 88° (E) 04:48:40 137.62
SO-50 03 Dec 05:02:03 05:06:29 51° 52° (NE) 05:10:50 436.795
Cosmos 2504 03 Dec 05:11:06 05:16:17 16° 58° (ENE) 05:21:21 435.465 / 435.565
STARS 03 Dec 05:19:05 05:19:53 10° 271° (W) 05:20:42 437.465
PHONESAT 2.4 03 Dec 05:22:52 05:25:22 35° 195° (SSW) 05:27:51 2401.200-2431.200
BEESAT 3 03 Dec 05:28:23 05:32:10 54° 119° (ESE) 05:36:01 437.485
NOAA 18 03 Dec 05:29:21 05:33:06 18° 92° (E) 05:36:49 137.9125
LilacSat-2 03 Dec 05:32:13 05:35:31 28° 96° (E) 05:38:46 437.200
CUBESAT XI-V 03 Dec 05:38:22 05:39:22 11° 272° (W) 05:40:23 437.345
GOMX 1 03 Dec 05:40:47 05:46:14 72° 101° (ESE) 05:51:43 467.674
YUBILEINY 03 Dec 05:42:38 05:51:10 50° 75° (ENE) 05:59:39 435.215
AO-7 03 Dec 05:46:45 05:52:57 24° 308° (NW) 05:59:11 29.400- 29.500
BRITE-PL 03 Dec 05:47:30 05:52:36 48° 288° (WNW) 05:57:56 437.365/2234.400
CUTE-I 03 Dec 05:48:14 05:53:18 42° 98° (E) 05:58:18 437.470
BEESAT 2 03 Dec 05:50:12 05:53:55 41° 117° (ESE) 05:57:41 435.950
HO-68 03 Dec 06:02:56 06:05:39 12° 87° (E) 06:08:21 435.675
HORYU 2 03 Dec 06:04:44 06:08:47 35° 291° (WNW) 06:12:48 437.375
DOVE 4 03 Dec 06:08:50 06:14:07 58° 100° (E) 06:19:14 437.250
Cosmos 2491 03 Dec 06:10:12 06:17:59 37° 85° (E) 06:25:44 435.465 / 435.565
STRAND 1 03 Dec 06:10:57 06:16:03 70° 73° (ENE) 06:21:11 437.568
Cubesat XI-IV 03 Dec 06:12:54 06:18:15 70° 103° (ESE) 06:23:33 437.490
CINEMA 3 03 Dec 06:16:19 06:19:30 17° 90° (E) 06:22:35 145.822/145.860
NOAA 15 03 Dec 06:22:07 06:27:25 87° 283° (WNW) 06:32:42 137.62
RS-15 03 Dec 06:36:12 06:46:23 37° 105° (ESE) 06:56:57 29.354- 29.394
SO-50 03 Dec 06:43:28 06:46:33 18° 250° (WSW) 06:49:35 436.795
AIST 1 03 Dec 06:47:03 06:51:23 54° 79° (E) 06:55:42
CUBEBUG 2 03 Dec 06:59:15 06:59:47 10° 87° (E) 07:00:17 437.445
Cosmos 2504 03 Dec 07:02:30 07:11:25 75° 81° (E) 07:19:50 435.465 / 435.565
LilacSat-2 03 Dec 07:06:49 07:09:38 20° 292° (WNW) 07:12:25 437.200
BEESAT 3 03 Dec 07:07:27 07:10:07 17° 318° (NW) 07:12:48 437.485
NOAA 18 03 Dec 07:08:42 07:14:10 62° 289° (WNW) 07:19:36 137.9125
GOMX 1 03 Dec 07:20:15 07:23:42 18° 298° (WNW) 07:27:12 467.674
CUTE 1.7 + AOD 2 03 Dec 07:20:47 07:24:50 45° 99° (E) 07:28:52 437.475
CUTE-I 03 Dec 07:28:44 07:33:06 26° 296° (WNW) 07:37:27 437.470
BEESAT 2 03 Dec 07:28:50 07:31:52 21° 315° (NW) 07:34:58 435.950
CANX-2 03 Dec 07:37:58 07:42:12 84° 102° (ESE) 07:46:25 2200.000
YUBILEINY 03 Dec 07:39:52 07:47:41 37° 275° (W) 07:55:30 435.215
Oscar 11 03 Dec 07:45:19 07:46:40 11° 89° (E) 07:48:01 145.826/435.025
UWE-3 03 Dec 07:46:20 07:49:45 22° 93° (E) 07:53:03 435.000/436.395/437.385
HO-68 03 Dec 07:47:15 07:54:30 75° 105° (ESE) 08:01:41 435.675
DOVE 4 03 Dec 07:47:31 07:51:18 20° 297° (WNW) 07:55:01 437.250
AIST 2 03 Dec 07:48:51 07:51:51 20° 112° (ESE) 07:54:52 435.215
CINEMA 3 03 Dec 07:52:13 07:56:58 52° 288° (WNW) 08:01:31 145.822/145.860
STRAND 1 03 Dec 07:53:02 07:55:43 14° 270° (W) 07:58:25 437.568
UNISAT 6 03 Dec 07:53:05 07:55:26 14° 62° (ENE) 07:57:46 437.425
Cubesat XI-IV 03 Dec 07:54:23 07:57:44 17° 300° (WNW) 08:01:03 437.490
AAUSAT CUBESAT 2 03 Dec 08:00:34 08:04:32 43° 99° (E) 08:08:29 437.432
NOAA 15 03 Dec 08:04:14 08:06:23 13° 303° (WNW) 08:08:32 137.62
Cosmos 2491 03 Dec 08:06:05 08:14:32 50° 285° (WNW) 08:23:01 435.465 / 435.565
SEEDS 03 Dec 08:10:28 08:14:38 72° 285° (WNW) 08:18:48 437.485
PRISM 03 Dec 08:18:53 08:22:56 77° 257° (WSW) 08:27:02 437.425
TIGRISAT 03 Dec 08:22:27 08:26:14 25° 67° (ENE) 08:30:01 435.000
ANTELSAT 03 Dec 08:22:55 08:26:48 26° 67° (ENE) 08:30:40 437.575/2403.000
AIST 1 03 Dec 08:26:25 08:28:28 13° 276° (W) 08:30:30
COMPASS 1 03 Dec 08:27:17 08:31:25 70° 285° (WNW) 08:35:33 437.405
CUBEBUG 2 03 Dec 08:32:30 08:36:57 73° 285° (WNW) 08:41:15 437.445
ZACube-1 03 Dec 08:34:28 08:38:35 45° 98° (E) 08:42:35 437.345
FUNcube-1 03 Dec 08:44:05 08:48:15 53° 100° (E) 08:52:19 145.935
RS-15 03 Dec 08:46:13 08:58:00 70° 308° (NW) 09:10:22 29.354- 29.394
HUMSAT D 03 Dec 08:57:14 08:59:06 13° 91° (E) 09:00:57 437.325/437.525
Cosmos 2504 03 Dec 08:57:15 09:03:49 24° 281° (W) 09:10:10 435.465 / 435.565
CUTE 1.7 + AOD 2 03 Dec 08:57:39 09:00:19 17° 295° (WNW) 09:02:58 437.475
QB50P2 03 Dec 09:16:36 09:17:58 11° 61° (ENE) 09:19:20 145.880/145.840
POLYITAN 1 03 Dec 09:17:28 09:18:37 11° 61° (ENE) 09:19:46 437.675
Oscar 11 03 Dec 09:18:57 09:23:13 64° 286° (WNW) 09:27:28 145.826/435.025
UWE-3 03 Dec 09:22:22 09:26:16 32° 290° (WNW) 09:30:03 435.000/436.395/437.385
AIST 2 03 Dec 09:26:08 09:30:02 40° 309° (NW) 09:34:00 435.215
UNISAT 6 03 Dec 09:26:52 09:31:34 71° 259° (WSW) 09:36:15 437.425
DELFI C3 03 Dec 09:27:49 09:31:44 57° 100° (E) 09:35:39 145.870
QB50P1 03 Dec 09:30:10 09:32:36 15° 63° (ENE) 09:35:01 145.935-145.965
HO-68 03 Dec 09:36:06 09:41:30 24° 303° (WNW) 09:46:54 435.675
DUCHIFAT 1 03 Dec 09:36:43 09:39:08 15° 64° (ENE) 09:41:34 145.980
AAUSAT CUBESAT 2 03 Dec 09:37:02 09:39:39 17° 295° (WNW) 09:42:16 437.432
JAS-2 03 Dec 09:49:02 09:55:17 45° 70° (ENE) 10:00:50 435.910
POPSAT HIP 1 03 Dec 09:50:13 09:53:37 23° 67° (ENE) 09:57:02 437.405
CUSAT 1 03 Dec 09:55:55 09:59:18 48° 281° (W) 10:02:06 437.405
TIGRISAT 03 Dec 09:58:24 10:02:43 36° 263° (W) 10:07:03 435.000
ANTELSAT 03 Dec 09:59:05 10:03:21 34° 263° (W) 10:07:36 437.575/2403.000
DANDE 03 Dec 10:08:22 10:13:22 51° 98° (E) 10:17:08 436.750
ZACube-1 03 Dec 10:11:47 10:14:29 17° 296° (WNW) 10:17:10 437.345
Cosmos 2499 03 Dec 10:12:50 10:19:07 21° 62° (ENE) 10:25:05 435.465 / 435.565
GONETS M04 03 Dec 10:20:15 10:26:39 22° 63° (ENE) 10:33:03
FUNcube-1 03 Dec 10:21:44 10:24:02 14° 297° (WNW) 10:26:18 145.935
HUMSAT D 03 Dec 10:31:03 10:35:01 50° 287° (WNW) 10:38:57 437.325/437.525
PCSat 03 Dec 10:34:03 10:36:50 14° 103° (ESE) 10:39:37 145.827
BUGSAT 1 03 Dec 10:45:14 10:48:57 31° 69° (ENE) 10:52:43 437.445
AO-85 03 Dec 10:45:39 10:49:24 37° 50° (NE) 10:53:02 145.980
NANOSAT C BR1 03 Dec 10:46:10 10:50:26 90° 88° (E) 10:54:44 145.865
QB50P2 03 Dec 10:48:52 10:53:09 74° 258° (WSW) 10:57:27 145.880/145.840
POLYITAN 1 03 Dec 10:49:28 10:53:46 77° 258° (WSW) 10:58:06 437.675
ESTCUBE 1 03 Dec 10:52:42 10:56:51 36° 97° (E) 11:01:01 437.505/2401.250
RS-15 03 Dec 11:03:05 11:13:18 30° 338° (NNW) 11:23:46 29.354- 29.394
QB50P1 03 Dec 11:03:44 11:07:55 53° 260° (W) 11:12:08 145.935-145.965
DELFI C3 03 Dec 11:04:29 11:06:04 12° 297° (WNW) 11:07:39 145.870
DUCHIFAT 1 03 Dec 11:10:13 11:14:22 53° 260° (W) 11:18:34 145.980
SPROUT 03 Dec 11:11:42 11:14:15 15° 92° (E) 11:16:46 437.525
AISAT 03 Dec 11:13:02 11:16:47 26° 95° (E) 11:20:31 437.250
POPSAT HIP 1 03 Dec 11:25:23 11:29:14 32° 263° (W) 11:33:06 437.405
JAS-2 03 Dec 11:34:43 11:40:25 30° 264° (W) 11:45:38 435.910
CUBEBUG 1 03 Dec 11:47:04 11:51:32 86° 102° (ESE) 11:55:59 437.445
50 SAT 03 Dec 11:49:27 11:52:56 50° 100° (E) 11:56:24 437.505
VELOX 1 03 Dec 11:49:41 11:54:07 60° 101° (E) 11:58:32 145.980
Gurwin Techsat 1B 03 Dec 11:49:57 11:53:54 22° 63° (ENE) 11:57:53 435.225
DANDE 03 Dec 11:53:53 11:55:59 13° 286° (WNW) 11:57:52 436.750
Cosmos 2499 03 Dec 12:04:43 12:13:29 86° 264° (W) 12:21:36 435.465 / 435.565
DX 1 03 Dec 12:13:31 12:17:52 58° 101° (E) 12:22:11 434.975-435.025
PCSat 03 Dec 12:14:05 12:19:30 79° 300° (WNW) 12:24:57 145.827
GONETS M04 03 Dec 12:15:50 12:24:34 83° 265° (W) 12:33:18
Oscar 19 03 Dec 12:17:26 12:22:31 70° 73° (ENE) 12:27:39 437.125/150
BUGSAT 1 03 Dec 12:20:57 12:24:19 23° 266° (W) 12:27:44 437.445
AO-85 03 Dec 12:26:43 12:29:30 19° 248° (WSW) 12:32:15 145.980
UKube-1 03 Dec 12:26:52 12:31:10 60° 102° (ESE) 12:35:26 .
ESTCUBE 1 03 Dec 12:29:55 12:33:27 23° 294° (WNW) 12:36:59 437.505/2401.250
ITAMSAT 1 03 Dec 12:41:33 12:44:33 16° 60° (ENE) 12:47:33 435.822/435.867
TISAT 1 03 Dec 12:43:57 12:47:28 25° 95° (E) 12:50:58 437.305
SPROUT 03 Dec 12:46:17 12:50:26 47° 288° (WNW) 12:54:32 437.525
AISAT 03 Dec 12:49:18 12:53:14 31° 292° (WNW) 12:57:09 437.250
AO-7 03 Dec 13:01:28 13:08:14 29° 55° (NE) 13:15:02 29.400- 29.500
ITUPSAT 1 03 Dec 13:16:28 13:17:47 11° 89° (E) 13:19:06 437.325
RS-15 03 Dec 13:21:24 13:31:17 26° 13° (NNE) 13:41:07 29.354- 29.394
50 SAT 03 Dec 13:24:51 13:25:47 11° 296° (WNW) 13:26:43 437.505
CUBEBUG 1 03 Dec 13:26:18 13:27:06 10° 300° (WNW) 13:27:56 437.445
VELOX 1 03 Dec 13:27:37 13:30:04 15° 298° (WNW) 13:32:31 145.980
Gurwin Techsat 1B 03 Dec 13:28:17 13:33:28 52° 260° (W) 13:38:41 435.225
BEESAT 3 03 Dec 13:44:51 13:48:35 37° 50° (NE) 13:52:18 437.485
DX 1 03 Dec 13:51:08 13:53:34 15° 298° (WNW) 13:56:00 434.975-435.025
Oscar 19 03 Dec 13:59:42 14:02:21 14° 270° (W) 14:05:00 437.125/150
Cosmos 2499 03 Dec 14:00:08 14:05:08 17° 285° (WNW) 14:10:00 435.465 / 435.565
PCSat 03 Dec 14:00:35 14:03:48 16° 321° (NW) 14:07:02 145.827
UKube-1 03 Dec 14:04:27 14:06:42 14° 298° (WNW) 14:08:56 .
BEESAT 2 03 Dec 14:07:28 14:11:07 31° 49° (NE) 14:14:43 435.950
GONETS M04 03 Dec 14:15:14 14:19:57 16° 284° (WNW) 14:24:41
ITAMSAT 1 03 Dec 14:18:11 14:23:24 75° 257° (WSW) 14:28:38 435.822/435.867
TISAT 1 03 Dec 14:19:26 14:23:04 28° 292° (WNW) 14:26:40 437.305
AUBIESAT-1 03 Dec 14:20:12 14:24:41 47° 104° (ESE) 14:29:00 437.475
SWISSCUBE 03 Dec 14:21:24 14:26:07 60° 102° (ESE) 14:30:48 437.505
MOZHAYETS 4 03 Dec 14:22:56 14:25:11 13° 90° (E) 14:27:24
BEESAT 03 Dec 14:25:47 14:30:30 60° 101° (E) 14:35:11 436.000
M-CUBED/EXP-1 PRIME 03 Dec 14:29:41 14:34:24 74° 107° (ESE) 14:38:58 437.505
ITUPSAT 1 03 Dec 14:51:24 14:56:10 78° 287° (WNW) 15:00:54 437.325
AO-7 03 Dec 14:52:04 15:00:20 71° 255° (WSW) 15:08:41 29.400- 29.500
KKS-1 03 Dec 15:14:03 15:17:18 19° 93° (E) 15:20:31 437.445
BRITE-PL 03 Dec 15:22:05 15:25:22 22° 65° (ENE) 15:28:49 437.365/2234.400
BEESAT 3 03 Dec 15:23:01 15:25:59 20° 248° (WSW) 15:28:57 437.485
HORYU 2 03 Dec 15:27:10 15:30:41 23° 66° (ENE) 15:34:12 437.375
STARS 03 Dec 15:29:22 15:31:19 13° 90° (E) 15:33:17 437.465
RS-15 03 Dec 15:35:29 15:47:35 54° 45° (NE) 15:59:21 29.354- 29.394
CUTE-I 03 Dec 15:35:31 15:36:37 11° 56° (NE) 15:37:43 437.470
BEESAT 2 03 Dec 15:45:26 15:48:47 25° 246° (WSW) 15:52:07 435.950
O/OREOS (USA 219) 03 Dec 15:48:21 15:52:30 35° 105° (ESE) 15:56:39 437.305
CUBESAT XI-V 03 Dec 15:53:46 15:56:58 18° 92° (E) 16:00:11 437.345
AUBIESAT-1 03 Dec 15:55:18 15:58:43 21° 301° (WNW) 16:02:03 437.475
Cubesat XI-IV 03 Dec 15:57:53 16:01:16 17° 60° (ENE) 16:04:40 437.490
MOZHAYETS 4 03 Dec 15:58:13 16:02:43 60° 286° (WNW) 16:07:12
SWISSCUBE 03 Dec 16:00:32 16:03:24 16° 298° (WNW) 16:06:16 437.505
NOAA 15 03 Dec 16:04:45 16:08:39 21° 62° (ENE) 16:12:32 137.62
BEESAT 03 Dec 16:04:53 16:07:47 16° 298° (WNW) 16:10:41 436.000
M-CUBED/EXP-1 PRIME 03 Dec 16:05:37 16:08:15 15° 304° (NW) 16:10:50 437.505
AIST 2 03 Dec 16:08:57 16:12:03 19° 43° (NE) 16:15:08 435.215
LilacSat-2 03 Dec 16:15:19 16:17:48 17° 66° (ENE) 16:20:16 437.200
Cosmos 2491 03 Dec 16:20:10 16:25:52 18° 60° (ENE) 16:31:31 435.465 / 435.565
HO-68 03 Dec 16:34:14 16:36:41 12° 48° (NE) 16:39:08 435.675
ISS 03 Dec 16:42:27 16:45:29 35° 138° (SE) 16:48:32 145.825
GOMX 1 03 Dec 16:49:28 16:53:56 75° 75° (ENE) 16:58:45 467.674
KKS-1 03 Dec 16:49:48 16:54:01 41° 290° (WNW) 16:58:12 437.445
AO-7 03 Dec 16:51:18 16:54:31 13° 273° (W) 16:57:46 29.400- 29.500
NOAA 18 03 Dec 16:55:33 17:00:34 37° 67° (ENE) 17:05:39 137.9125
BRITE-PL 03 Dec 16:59:49 17:03:40 33° 264° (W) 17:07:44 437.365/2234.400
HORYU 2 03 Dec 17:02:53 17:07:01 36° 262° (W) 17:11:10 437.375
STARS 03 Dec 17:03:41 17:08:04 61° 287° (WNW) 17:12:24 437.465
CUTE-I 03 Dec 17:10:21 17:15:42 73° 73° (ENE) 17:21:04 437.470
DOVE 4 03 Dec 17:14:22 17:18:58 57° 73° (ENE) 17:23:54 437.250
CINEMA 3 03 Dec 17:18:07 17:21:28 19° 63° (ENE) 17:24:52 145.822/145.860
O/OREOS (USA 219) 03 Dec 17:28:14 17:31:58 25° 303° (WNW) 17:35:43 437.305
CUBESAT XI-V 03 Dec 17:30:07 17:34:35 46° 288° (WNW) 17:39:02 437.345
Cubesat XI-IV 03 Dec 17:35:24 17:40:44 70° 257° (WSW) 17:46:08 437.490
